Regional Weather Roundup
Issued by NWS

Home | Current Version | Previous Version | Graphics & Text | Print | Product List | Glossary Off
Versions: 1 2 3 4 5 6 7 8 9 10 11 12 13 14 15 16 17 18 19 20 21 22 23 24 25 26 27 28 29 30 31 32 33 34 35 36 37 38 39 40 41 42 43 44 45 46 47 48 49 50

000
ASUS43 KMKX 250710
RWRWI

WISCONSIN REGIONAL WEATHER ROUNDUP
NATIONAL WEATHER SERVICE MILWAUKEE/SULLIVAN WI
100 AM CST SUN JAN 25 2015

NOTE: "FAIR" INDICATES FEW OR NO CLOUDS BELOW 12,000 FEET WITH NO
SIGNIFICANT WEATHER AND/OR OBSTRUCTIONS TO VISIBILITY.

WIZ001-002-006>008-014>016-023>028-250800-
NORTHWEST WISCONSIN

CITY           SKY/WX    TMP DP  RH WIND       PRES   REMARKS
SUPERIOR ARPT  CLOUDY    23  15  71 E17G23    29.88R WCI   9
ASHLAND        CLOUDY    20  14  77 NE12      29.88R WCI   8
HAYWARD        MOCLDY    18  11  74 NE13      29.81R WCI   5
SIREN          CLOUDY    24  17  74 NE13G20   29.81R WCI  12
CUMBERLAND     CLOUDY    27  21  80 NE14      29.75R WCI  15
RICE LAKE      CLOUDY    29  20  71 NE20      29.76R WCI  16
CHETEK         CLOUDY    28  20  72 N8        29.75R WCI  20
LADYSMITH      CLOUDY    26  19  74 NE14G26   29.77R WCI  14
EAU CLAIRE     CLOUDY    33  26  75 NE14      29.71R WCI  23
MENOMONIE      CLOUDY    33  28  82 N16G22    29.71R WCI  23
NEW RICHMOND   CLOUDY    32  27  83 NE16G22   29.73R WCI  21
OSCEOLA        CLOUDY    31  26  81 NE13      29.78R WCI  21
$$

WIZ003>005-009-010-017-018-250800-
NORTH CENTRAL WISCONSIN

CITY           SKY/WX    TMP DP  RH WIND       PRES   REMARKS
MANITOWISH WTR FLURRIES  13   8  79 E7        29.80R WCI   3
ARBOR VITAE    FLURRIES  17  11  78 E8        29.79R WCI   6
WOODRUFF       FLURRIES  17  11  78 E8        29.79R WCI   6
RHINELANDER    CLOUDY    15   9  76 NE9       29.78R WCI   3
EAGLE RIVER    CLOUDY    14   7  73 NE10      29.79R WCI   1
LAND O LAKES   MOCLDY    14   9  80 NE3       29.81R
PHILLIPS       CLOUDY    19  14  84 NE14G21   29.77R WCI   5
TOMAHAWK       CLOUDY    19  14  81 NE9       29.78R WCI   9
MEDFORD        CLOUDY    26  20  77 NE14      29.72R WCI  14
MERRILL        CLOUDY    24  18  77 NE13      29.75R WCI  13
$$

WIZ029-030-035-036-043>047-250800-
CENTRAL WISCONSIN

CITY           SKY/WX    TMP DP  RH WIND       PRES   REMARKS
WAUSAU         CLOUDY    28  21  75 NE12      29.72R WCI  18
MOSINEE        CLOUDY    28  27  93 E14       29.72R WCI  17
MARSHFIELD     CLOUDY    30  26  85 E15       29.70R WCI  19
STEVENS POINT  CLOUDY    26  22  85 E15       29.73R WCI  14
WAUPACA        CLOUDY    27  20  76 NE9       29.76R WCI  17
WAUTOMA        CLOUDY    27  24  88 NE16G24   29.73R WCI  15
WISC RAPIDS    CLOUDY    29  24  82 E12       29.73R WCI  19
CAMP DOUGLAS   MIX PCPN  32  32 100 E8        29.68R WCI  25
$$

WIZ011>013-019>022-031-037>040-048>050-250800-
NORTHEAST WISCONSIN

CITY           SKY/WX    TMP DP  RH WIND       PRES   REMARKS
ANTIGO         CLOUDY    19  15  82 NE16      29.75R WCI   5
SHAWANO        CLOUDY    23  15  71 E13       29.81R WCI  11
OCONTO         CLOUDY    21  13  70 NE9       29.82R WCI  11
STURGEON BAY   CLOUDY    19  12  73 NE9       29.82R WCI   9
GREEN BAY      CLOUDY    22  15  75 NE20G29   29.79R WCI   7
MANITOWOC      CLOUDY    25  20  81 N12       29.77R WCI  14
APPLETON       CLOUDY    23  18  80 NE15G23   29.76R WCI  10
CLINTONVILLE   CLOUDY    25  18  74 E15G22    29.78R WCI  12
OSHKOSH        CLOUDY    25  18  74 NE15G24   29.74R WCI  13
$$

WIZ032>034-041-042-053>061-250800-
SOUTHWEST WISCONSIN

CITY           SKY/WX    TMP DP  RH WIND       PRES   REMARKS
LA CROSSE      CLOUDY    37  30  75 E8        29.65R WCI  31
SPARTA         CLOUDY    32  30  92 CALM      29.67R
VIROQUA        CLOUDY    32  32 100 E8        29.62R WCI  25
BOSCOBEL       CLOUDY    35  30  82 NE6       29.64S WCI  30
PRAIRIE DU CHI CLOUDY    36  32  85 E8        29.61S WCI  29
PLATTEVILLE    CLOUDY    33  32  96 NE12      29.61S WCI  24
$$

WIZ056-057-062-063-064-067-068-250800-
SOUTH CENTRAL WISCONSIN

CITY           SKY/WX    TMP DP  RH WIND       PRES   REMARKS
REEDSBURG      CLOUDY    31  30  94 E6        29.66S WCI  26
BARABOO/DELLS  MIX PCPN  31  29  92 NE9       29.67R WCI  23
LONE ROCK      CLOUDY    33  30  88 E7        29.65S WCI  27
MINERAL POINT  CLOUDY    34  32  93 E13       29.61S WCI  25
MADISON        CLOUDY    32  28  85 NE5       29.66R WCI  27
MIDDLETON      CLOUDY    32  32  99 E5        29.66S WCI  27
WATERTOWN      CLOUDY    31  29  90 NE15      29.68R WCI  21
MONROE         CLOUDY    32  32 100 NE10      29.63S FOG     WCI  24
JANESVILLE     CLOUDY    32  32 100 E6        29.66R WCI  26
$$

WIZ051-052-058>065-066-070>072-250800-
SOUTHEAST WISCONSIN

CITY           SKY/WX    TMP DP  RH WIND       PRES   REMARKS
MILWAUKEE      CLOUDY    32  27  81 NE17G25   29.70R WCI  21
WAUKESHA       LGT SNOW  30  28  93 NE13      29.70S WCI  20
MILWAUKEE/TIMM CLOUDY    30  27  86 NE15G23   29.71S WCI  19
RACINE         CLOUDY    33  29  85 NE15      29.70R WCI  23
BURLINGTON     CLOUDY    30  30  99 NE10      29.68R WCI  21
KENOSHA        CLOUDY    34  31  88 NE8       29.68R WCI  27
FOND DU LAC    CLOUDY    27  20  75 NE15      29.73R WCI  15
SHEBOYGAN      CLOUDY    27  21  78 NE21      29.73S WCI  13
WEST BEND      CLOUDY    28  23  80 NE17G26   29.71R WCI  16
JUNEAU         CLOUDY    29  25  84 NE14G23   29.70R WCI  18
$$

LSZ147-162-250800-
LAKE SUPERIOR

STATION/POSITION TIME  TEMP    WIND        PRES    WAVE
                       AIR SEA DIR/SP/G            HT/PER
                 (UTC) (F)     (DEG/KT/KT) (MB)    (FT/S)
DEVILS ISLAND    0700   19      50/ 17/ 21 1014.3R
PORT WING        0640   21      60/  7/ 12 1012.5R
SAXON HARBOR     0640   19      80/  6/ 12 1012.2R
$$

LMZ867-665-643>646-250800-
LAKE MICHIGAN

STATION/POSITION TIME  TEMP    WIND        PRES    WAVE
                       AIR SEA DIR/SP/G            HT/PER
                 (UTC) (F)     (DEG/KT/KT) (MB)    (FT/S)
NORTHPORT PIER   0703   21      10/ 13/ 17 1010.5R
SISTER BAY       0613   20      30/ 10/ 12   N/A
KEWAUNEE LAKESHO 0600   24      20/ 12/ 16 1007.6R
SHEBOYGAN LAKESH 0700   29      20/ 25/ 27 1007.9R
PORT WASHINGTON  0600   31      40/ 20/ 26 1007.1R
MILWAUKEE LAKESH 0600   33      40/ 21/ 24   N/A
KENOSHA   LAKESH 0700   34      20/ 17/ 18 1005.1S
$$

TC  - TEMPERATURE IN CELSIUS
VSB - VISIBILITY IN STATUTE MILES
WCI - WIND CHILL INDEX
HX  - HEAT INDEX




USA.gov is the U.S. government's official web portal to all federal, state and local government web resources and services.